GFSNE_2pvu_pres_036.txt.gz
Presure
218 217 242 252 262 262 239 258 271 295 333 328 319 312 324 345 460 440 414 410 403 376 397 406 415 420 417 421 434 432 443 334 341 300 236 232 210 210
233 276 277 258 252 248 251 264 274 337 332 327 325 332 339 461 429 408 365 352 350 351 349 354 363 377 394 407 419 428 436 446 456 338 297 237 235 216
271 264 248 247 263 271 265 307 334 328 341 339 338 349 433 434 401 363 345 343 346 351 357 365 367 364 363 372 385 401 415 429 438 448 349 294 239 236
265 255 252 262 267 273 314 323 331 333 336 340 354 380 442 416 370 345 338 339 338 341 360 384 388 270 384 380 370 380 392 405 421 434 439 251 270 238
256 263 253 276 287 291 330 331 328 344 355 393 405 390 426 385 349 337 328 327 328 352 417 408 409 407 400 399 397 398 392 390 398 416 431 414 348 266
256 263 279 291 318 325 328 339 346 354 388 381 348 390 408 363 339 328 319 319 323 409 388 385 387 148 391 412 403 411 417 411 403 404 408 379 405 338
288 321 328 339 324 342 348 363 396 369 395 346 377 420 384 349 331 327 316 311 322 403 404 405 397 383 377 380 384 386 390 400 409 421 425 405 422 416
277 311 349 332 341 351 364 374 404 353 379 377 361 396 365 338 326 317 308 305 322 408 356 357 360 361 363 364 368 372 383 388 395 401 410 413 407 184
356 335 348 350 362 412 380 360 407 405 385 364 367 380 351 330 320 312 303 305 321 369 347 347 352 354 355 359 367 371 380 300 387 394 403 399 399 415
365 360 358 398 380 362 385 413 398 384 365 355 391 369 344 326 318 309 298 304 316 367 341 343 346 351 371 377 412 153 457 459 399 399 401 411 406 407
385 402 371 355 407 388 402 392 375 362 356 390 377 362 340 323 314 309 303 302 312 368 341 337 340 366 367 416 424 470 487 503 500 487 423 420 422 414
363 343 346 398 391 372 385 378 363 349 346 384 367 357 336 321 313 308 306 303 307 368 339 327 351 365 360 413 421 471 476 481 483 483 485 484 420 421
343 395 389 383 373 379 382 366 347 339 377 372 355 350 338 321 316 310 309 306 307 366 338 323 357 360 362 402 419 469 461 466 466 476 482 492 447 405
397 385 381 377 368 385 367 352 338 332 384 366 351 341 328 323 317 305 306 309 307 364 340 322 364 353 361 403 416 470 454 449 453 461 466 468 464 393
379 379 374 377 368 369 354 343 333 330 382 363 351 335 325 320 321 316 309 310 316 364 336 318 362 352 349 397 418 458 454 448 441 439 347 446 441 381
399 383 386 371 359 365 350 337 330 343 383 365 348 337 328 319 320 326 315 315 325 366 333 314 360 346 345 365 421 450 444 439 431 428 428 339 348 357
359 346 363 377 357 364 345 332 328 333 380 364 348 334 333 319 319 321 319 327 311 351 335 313 355 346 339 345 419 442 438 432 424 415 412 409 385 341
340 347 334 367 367 362 344 331 326 321 367 365 345 330 332 318 315 312 311 332 305 333 345 311 333 354 340 336 389 430 434 426 423 410 401 399 394 388
340 339 334 323 363 359 343 330 323 319 339 368 346 332 330 320 316 317 305 341 303 322 355 314 314 359 338 333 341 415 431 428 416 401 396 393 391 399
324 336 316 324 360 363 344 331 322 314 337 370 349 337 326 323 320 317 312 351 302 318 363 322 304 333 355 333 336 342 413 426 417 404 399 394 403 384
353 337 329 328 340 358 349 334 321 313 331 330 359 341 329 320 320 319 324 335 301 307 332 349 306 311 356 343 328 328 338 393 417 413 407 401 379 363
364 354 341 334 327 346 358 338 326 315 307 331 325 349 332 320 317 316 331 331 303 303 321 392 326 301 321 359 335 326 328 328 342 353 357 353 349 347
359 356 350 345 335 324 339 349 331 320 306 314 324 323 344 328 319 317 333 330 300 301 308 326 364 308 299 321 359 336 329 324 325 324 330 331 334 335

GFSNE_2pvu_pres_042.txt.gz
Presure
212 224 230 221 215 253 249 256 271 267 277 289 304 340 410 389 381 376 379 371 372 376 389 423 399 418 387 454 403 385 376 378 402 437 435 455 472 281
224 231 218 218 250 251 252 255 275 283 287 317 385 414 402 398 401 414 407 402 409 414 368 411 373 400 444 395 374 362 362 367 370 385 421 437 449 460
234 222 221 247 251 251 257 276 286 289 311 451 440 410 381 379 364 359 357 350 363 412 365 403 398 430 393 369 356 352 351 354 361 369 379 412 403 451
228 216 245 250 251 251 275 281 284 304 387 408 391 376 360 354 402 432 439 433 428 411 402 387 393 390 365 351 342 338 339 342 351 360 376 382 412 438
225 244 251 252 251 268 269 276 301 336 412 394 374 418 414 417 410 416 416 412 401 388 378 420 388 360 346 340 337 332 330 334 361 431 446 387 390 413
240 248 250 249 262 267 273 293 326 413 397 378 423 403 392 387 386 396 388 381 370 368 411 389 358 342 339 330 326 324 330 396 436 401 420 441 389 393
240 250 250 259 266 270 286 322 412 404 380 408 394 388 387 393 398 387 377 365 367 407 384 368 342 336 331 324 317 322 387 384 381 398 415 415 437 390
252 253 257 263 266 283 314 412 408 389 395 393 389 385 376 391 379 364 358 357 392 386 368 351 337 335 326 326 317 321 381 369 368 375 387 401 415 430
257 255 263 265 283 308 387 404 400 377 388 417 386 386 388 377 362 350 349 391 386 374 355 348 334 330 323 320 316 317 380 360 357 362 373 387 396 410
255 262 265 292 303 386 400 401 384 379 392 364 352 380 377 363 350 343 365 378 371 368 349 332 331 325 323 320 322 322 368 357 354 354 359 373 382 392
261 267 296 296 339 404 401 397 374 380 381 351 355 381 374 357 346 337 386 369 360 365 347 324 325 321 319 319 327 325 359 352 341 384 389 391 398 394
273 290 290 336 409 401 401 385 373 377 358 348 353 376 370 352 341 339 386 359 351 350 341 328 327 316 314 322 334 356 348 336 380 374 374 402 448 416
289 286 325 413 408 404 389 380 378 376 346 341 341 378 367 348 337 368 386 361 344 343 333 326 331 329 325 323 326 358 338 377 367 365 450 490 496 507
289 321 416 414 409 391 385 385 375 359 318 333 340 345 363 346 335 366 382 357 343 333 334 326 330 329 328 330 355 340 358 362 357 470 470 465 472 480
314 430 420 402 393 388 385 378 370 341 298 327 336 336 362 344 333 363 376 351 342 331 323 331 328 326 336 324 344 330 364 355 461 460 457 457 459 467
438 424 399 389 389 384 377 377 350 329 298 343 336 333 361 343 330 338 369 350 340 332 317 320 318 339 317 360 333 320 355 343 458 447 439 437 440 454
414 400 386 390 382 381 414 380 363 316 293 352 342 334 359 343 330 333 376 348 339 327 322 322 310 336 315 353 328 349 349 371 442 428 424 417 419 424
408 395 385 383 371 382 379 372 370 372 326 355 343 334 359 343 329 326 369 349 335 328 321 321 336 315 319 346 322 361 342 383 433 421 415 400 396 400
380 373 368 373 369 382 377 372 370 369 361 355 341 334 351 344 329 320 333 353 333 325 319 319 343 305 317 346 322 362 337 374 427 416 402 393 393 391
393 402 394 385 384 381 386 378 373 365 356 351 342 336 333 345 330 316 328 358 339 322 321 321 341 304 316 349 320 344 339 338 426 417 401 394 391 388
419 401 390 387 388 387 382 376 364 355 341 341 344 338 331 349 333 316 321 330 339 320 320 333 332 307 311 357 321 330 345 328 429 418 406 395 391 390
423 410 394 393 388 387 377 363 351 351 359 344 341 337 331 354 336 318 308 325 349 329 320 333 323 308 303 340 333 306 354 328 340 419 401 396 391 386
378 374 368 363 361 385 366 350 340 362 377 355 337 334 332 336 341 322 306 319 328 346 322 326 327 305 302 320 353 314 338 340 323 385 409 398 388 388

GFSNE_2pvu_pres_045.txt.gz
Presure
197 200 201 215 209 219 235 238 232 242 265 270 264 272 281 303 334 437 415 400 389 383 377 369 363 361 362 378 408 428 383 374 449 432 447 449 448 468
204 203 213 211 218 234 224 232 248 259 269 264 270 278 306 336 438 413 422 429 423 422 441 441 455 449 442 440 399 392 369 366 410 424 402 396 395 404
206 215 216 214 231 239 231 246 250 271 268 271 277 299 331 436 416 410 415 408 403 398 401 424 424 421 414 413 415 410 402 421 393 379 372 373 375 381
213 217 212 231 235 231 239 248 266 273 270 277 302 319 430 418 400 405 401 401 401 406 407 401 391 391 393 391 384 416 392 373 361 358 358 360 362 372
218 216 228 241 229 237 246 257 270 272 278 301 301 422 419 401 392 416 397 391 402 402 392 382 372 372 374 417 400 377 363 355 349 350 347 346 353 358
222 226 236 229 234 240 254 266 275 277 294 300 352 418 406 387 395 367 384 400 391 382 369 366 363 388 402 390 367 354 347 342 340 339 340 344 351 357
225 214 229 229 233 252 262 277 275 293 295 333 416 412 392 384 371 356 396 387 375 365 357 405 399 387 385 369 352 344 338 334 331 328 329 340 392 426
222 227 221 231 248 260 276 277 289 292 330 418 414 400 381 390 357 352 391 377 364 357 352 390 391 378 371 355 346 337 332 328 331 327 329 391 384 389
226 225 231 240 260 276 281 283 285 328 419 416 408 389 378 382 348 350 385 372 359 353 384 374 379 377 360 350 338 329 329 329 330 328 327 386 375 377
233 228 239 255 274 283 282 287 330 424 418 414 394 383 379 367 345 341 380 363 351 351 396 364 367 368 362 342 330 326 325 327 327 335 334 373 365 370
230 237 251 274 283 274 317 327 415 418 419 398 387 384 376 346 306 341 368 358 345 348 390 367 354 356 357 341 329 327 324 323 331 342 374 365 360 362
235 251 273 280 275 302 330 421 424 414 401 391 385 378 369 340 306 339 375 352 343 369 376 362 353 344 345 343 334 330 321 329 348 342 364 355 352 388
250 272 280 274 289 335 431 409 401 398 391 384 375 373 349 309 315 339 371 349 337 393 365 358 346 341 330 330 343 341 331 342 337 356 347 357 378 379
277 279 278 288 343 419 410 399 395 390 388 370 401 374 349 306 307 341 370 350 337 390 359 356 347 334 327 330 334 335 338 352 353 339 373 369 368 442
281 281 291 422 419 419 407 396 393 386 371 393 402 370 358 354 308 342 366 346 338 390 355 342 344 332 325 328 316 331 324 353 335 368 359 457 453 460
281 320 446 428 411 398 389 380 368 368 361 375 372 369 367 367 358 340 361 345 335 365 355 336 333 325 325 318 337 319 356 337 367 352 449 433 435 447
402 442 424 406 390 392 391 387 375 373 371 370 367 369 369 366 357 339 359 341 330 350 358 346 328 327 329 330 319 331 346 320 351 417 424 412 408 409
440 417 399 414 425 419 411 404 397 386 373 372 370 368 363 360 353 339 354 339 327 331 358 342 333 327 321 338 308 355 334 349 342 436 409 404 394 400
406 413 407 452 440 426 416 406 392 377 373 378 372 371 360 352 347 340 348 340 323 326 359 342 328 325 336 327 306 352 328 356 334 425 410 400 394 392
427 406 430 403 391 407 406 399 388 382 381 377 371 362 352 343 342 340 332 342 323 321 357 338 324 320 341 321 305 352 326 352 332 422 406 392 397 389
445 427 395 384 400 382 371 367 375 384 375 372 364 354 342 336 339 340 332 344 323 316 329 336 326 317 336 318 304 352 327 349 333 418 406 392 394 389
411 393 378 368 357 413 399 388 378 364 367 364 351 340 359 348 340 337 330 343 324 313 325 340 327 318 332 312 303 340 334 317 340 345 407 394 392 388
405 386 368 364 358 352 357 351 394 375 366 354 344 349 363 358 341 335 329 345 326 312 318 329 340 321 333 307 304 317 342 312 347 327 410 395 391 391

GFSNE_2pvu_pres_048.txt.gz
Presure
203 200 212 201 204 206 200 213 222 226 228 217 239 241 250 267 282 291 295 298 368 450 426 421 416 410 414 413 424 447 390 372 376 394 428 421 400 401
210 213 206 203 209 201 213 217 226 232 230 235 241 245 254 282 291 290 325 356 448 425 411 430 410 409 411 411 411 427 439 433 423 371 370 385 447 442
204 209 196 213 198 213 211 221 229 220 237 241 242 250 278 284 288 322 346 444 430 410 390 373 404 413 408 406 405 406 407 431 427 443 456 411 409 410
208 194 211 199 206 207 220 230 237 236 236 245 248 266 289 282 297 347 435 436 413 404 375 412 410 396 387 386 391 385 390 400 409 406 420 425 394 372
201 205 212 209 231 222 230 237 234 236 241 248 261 283 281 290 317 436 435 418 403 391 366 406 391 376 371 369 373 376 376 384 389 393 397 410 400 390
202 210 219 224 219 230 237 233 236 235 246 256 282 284 285 293 371 435 420 405 397 376 363 400 383 371 361 367 404 405 406 400 396 382 377 369 360 355
208 221 227 228 231 236 235 236 235 243 252 279 284 283 289 356 430 427 409 398 395 364 359 357 379 368 353 394 394 392 390 376 363 356 351 350 351 348
222 232 228 231 234 233 236 233 242 254 275 282 284 287 357 434 426 407 398 395 387 357 344 384 371 360 405 391 379 384 376 361 351 345 342 341 341 341
232 228 230 235 232 240 236 242 256 269 281 281 288 385 429 412 406 398 390 387 370 342 346 376 366 352 402 383 374 372 367 354 346 342 336 336 334 336
235 230 236 235 238 236 244 258 274 279 280 292 374 411 407 401 392 393 381 378 351 307 348 370 361 351 391 378 368 367 360 353 343 336 335 335 332 336
229 236 234 232 236 250 260 278 280 279 294 417 418 409 403 391 387 383 376 372 344 300 348 366 356 382 380 371 360 361 355 343 338 335 330 328 330 336
235 230 232 231 253 262 282 283 276 300 426 428 410 404 390 385 384 381 406 364 347 299 369 358 353 400 369 368 353 349 343 338 330 332 332 335 328 329
225 227 240 254 259 283 276 284 355 439 427 412 400 385 375 369 371 396 390 363 355 316 355 354 346 380 365 352 352 336 332 333 337 343 344 345 349 345
230 247 262 262 287 269 290 431 428 425 405 390 384 382 373 369 364 378 375 364 365 352 351 350 342 380 359 345 342 336 335 335 332 345 339 339 364 360
252 266 264 289 273 293 436 422 408 395 401 405 402 390 378 371 366 369 369 374 367 354 350 345 338 374 358 338 331 328 331 323 340 327 357 352 353 375
265 271 280 275 321 433 418 399 402 403 405 420 414 398 381 376 367 362 363 370 363 349 353 340 334 367 352 335 330 325 331 341 322 358 345 350 359 424
281 263 302 433 428 414 402 397 411 410 442 430 412 399 385 372 363 366 361 362 359 344 356 341 327 360 346 331 331 329 338 324 336 345 335 355 412 414
278 379 453 424 406 405 384 435 419 400 382 408 399 386 375 371 363 368 362 357 354 341 349 339 329 368 341 331 328 327 333 309 349 335 356 394 407 407
453 448 423 405 399 390 377 418 389 379 386 363 394 382 378 369 371 361 359 350 347 339 351 335 325 350 343 328 325 338 323 310 343 322 347 405 401 398
441 441 421 395 390 384 372 393 377 366 354 391 373 374 373 372 364 362 352 342 340 337 347 331 323 343 338 332 323 335 313 318 340 321 339 400 393 399
413 434 419 393 382 381 366 377 367 358 355 354 381 374 365 367 358 355 345 336 335 337 343 327 320 331 338 329 323 332 312 318 339 318 337 400 396 392
427 413 402 384 395 380 361 380 362 350 350 342 344 376 364 361 354 344 336 341 339 335 340 326 318 321 336 328 321 329 308 311 339 316 337 407 397 389
409 399 380 398 390 373 404 381 362 350 343 337 341 344 368 361 349 337 355 359 340 334 335 327 316 315 332 334 319 331 307 312 345 316 347 355 396 390